Погода в Рождествене

Россия / Белгородская область     50°13′16″N   38°10′52″E
темп.,
°C
ветер,
м/с
пор.,
м/с
влажн.,
%
обл.,
%
осадки,
мм/ч
давл.,
гПа
погр.,
м
17 мая, вт
вт1700:00+7з410908 0.1 1013194
03:00+5з412885 0.1 1013267
06:00+6зсз411850 0.0 1012317
09:00+11зсз710580 0.0 10121239
12:00+13зсз8104887 0.3 10112335
15:00+14зсз7104894 0.3 10102306
18:00+14зсз59533 0.0 10101447
21:00+9з497382 0.0 1010168
18 мая, ср
ср1800:00+6зюз34935 0.2 100956
03:00+5з369417 0.2 1009110
06:00+5зсз25876 0.0 1009165
09:00+11ссз346218 0.0 1009757
12:00+14ссз224897 0.2 10102039
15:00+13с446134 0.6 1010858
18:00+12с45704 1.4 1011960
21:00+8с34879 1.7 101359
19 мая, чт
чт1900:00+7с4109645 0.2 1015255
03:00+6с410955 0.3 1016238
06:00+6с39912 0.0 1017249
09:00+12с68705 0.0 1018784
12:00+15ссз785213 0.0 10181738
15:00+16ссз7950100 0.0 10172184
18:00+13зсз3769100 0.0 1018254
21:00+10зсз41282100 0.2 1019245
20 мая, пт
пт2000:00+8зсз398659 0.0 1019188
03:00+6сз349185 0.0 102057
06:00+7сз268844 0.0 1021187
09:00+13сз3566100 0.0 1022734
12:00+15зсз4760100 0.1 10211556
15:00+15зсз4663100 0.1 1020741
18:00+16зюз3465100 0.0 1019687
21:00+12з2690100 0.8 1019184
21 мая, сб
сб2100:00+11ююз3594100 0.2 1016101
03:00+10ююз41288100 0.3 1013271
06:00+10юз41287100 0.3 1011295
09:00+11юз61290100 2.3 1009409
12:00+16зюз81277100 0.6 1008786
15:00+17зюз71284100 1.2 1006859
18:00+15зюз61296100 3.9 1005585
21:00+14зюз61297100 9.5 1004643